Year,Month,Day,Hour,Minute,Value (Times are PST for temperature in C)
2012,07,30,00,00,14.70
2012,07,30,00,01,14.70
2012,07,30,00,02,14.70
2012,07,30,00,03,14.70
2012,07,30,00,04,14.70
2012,07,30,00,05,14.70
2012,07,30,00,06,14.70
2012,07,30,00,07,14.70
2012,07,30,00,08,14.70
2012,07,30,00,09,14.60
2012,07,30,00,10,14.60
2012,07,30,00,11,14.60
2012,07,30,00,12,14.60
2012,07,30,00,13,14.60
2012,07,30,00,14,14.60
2012,07,30,00,15,14.60
2012,07,30,00,16,14.60
2012,07,30,00,17,14.60
2012,07,30,00,18,14.50
2012,07,30,00,19,14.50
2012,07,30,00,20,14.50
2012,07,30,00,21,14.50
2012,07,30,00,22,14.50
2012,07,30,00,23,14.40
2012,07,30,00,24,14.40
2012,07,30,00,25,14.40
2012,07,30,00,26,14.40
2012,07,30,00,27,14.40
2012,07,30,00,28,14.40
2012,07,30,00,29,14.40
2012,07,30,00,30,14.30
2012,07,30,00,31,14.30
2012,07,30,00,32,14.30
2012,07,30,00,33,14.30
2012,07,30,00,34,14.30
2012,07,30,00,35,14.30
2012,07,30,00,36,14.20
2012,07,30,00,37,14.20
2012,07,30,00,38,14.20
2012,07,30,00,39,14.20
2012,07,30,00,40,14.20
2012,07,30,00,41,14.10
2012,07,30,00,42,14.10
2012,07,30,00,43,14.10
2012,07,30,00,44,14.10
2012,07,30,00,45,14.10
2012,07,30,00,46,14.00
2012,07,30,00,47,14.00
2012,07,30,00,48,14.00
2012,07,30,00,49,14.00
2012,07,30,00,50,13.90
2012,07,30,00,51,13.90
2012,07,30,00,52,13.90
2012,07,30,00,53,13.90
2012,07,30,00,54,13.90
2012,07,30,00,55,13.90
2012,07,30,00,56,13.90
2012,07,30,00,57,13.80
2012,07,30,00,58,13.80
2012,07,30,00,59,13.80
2012,07,30,01,00,13.80
2012,07,30,01,01,13.80
2012,07,30,01,02,13.80
2012,07,30,01,03,13.80
2012,07,30,01,04,13.80
2012,07,30,01,05,13.80
2012,07,30,01,06,13.80
2012,07,30,01,07,13.70
2012,07,30,01,08,13.70
2012,07,30,01,09,13.70
2012,07,30,01,10,13.70
2012,07,30,01,11,13.70
2012,07,30,01,12,13.70
2012,07,30,01,13,13.70
2012,07,30,01,14,13.70
2012,07,30,01,15,13.70
2012,07,30,01,16,13.70
2012,07,30,01,17,13.70
2012,07,30,01,18,13.60
2012,07,30,01,19,13.60
2012,07,30,01,20,13.60
2012,07,30,01,21,13.60
2012,07,30,01,22,13.60
2012,07,30,01,23,13.60
2012,07,30,01,24,13.60
2012,07,30,01,25,13.60
2012,07,30,01,26,13.60
2012,07,30,01,27,13.60
2012,07,30,01,28,13.60
2012,07,30,01,29,13.50
2012,07,30,01,30,13.50
2012,07,30,01,31,13.50
2012,07,30,01,32,13.50
2012,07,30,01,33,13.50
2012,07,30,01,34,13.50
2012,07,30,01,35,13.50
2012,07,30,01,36,13.40
2012,07,30,01,37,13.40
2012,07,30,01,38,13.40
2012,07,30,01,39,13.40
2012,07,30,01,40,13.40
2012,07,30,01,41,13.40
2012,07,30,01,42,13.40
2012,07,30,01,43,13.40
2012,07,30,01,44,13.40
2012,07,30,01,45,13.40
2012,07,30,01,46,13.30
2012,07,30,01,47,13.30
2012,07,30,01,48,13.30
2012,07,30,01,49,13.30
2012,07,30,01,50,13.30
2012,07,30,01,51,13.30
2012,07,30,01,52,13.30
2012,07,30,01,53,13.30
2012,07,30,01,54,13.30
2012,07,30,01,55,13.30
2012,07,30,01,56,13.20
2012,07,30,01,57,13.20
2012,07,30,01,58,13.20
2012,07,30,01,59,13.20
2012,07,30,02,00,13.20
2012,07,30,02,01,13.20
2012,07,30,02,02,13.20
2012,07,30,02,03,13.20
2012,07,30,02,04,13.20
2012,07,30,02,05,13.20
2012,07,30,02,06,13.20
2012,07,30,02,07,13.20
2012,07,30,02,08,13.20
2012,07,30,02,09,13.10
2012,07,30,02,10,13.10
2012,07,30,02,11,13.10
2012,07,30,02,12,13.10
2012,07,30,02,13,13.10
2012,07,30,02,14,13.10
2012,07,30,02,15,13.10
2012,07,30,02,16,13.10
2012,07,30,02,17,13.10
2012,07,30,02,18,13.10
2012,07,30,02,19,13.10
2012,07,30,02,20,13.10
2012,07,30,02,21,13.00
2012,07,30,02,22,13.00
2012,07,30,02,23,13.00
2012,07,30,02,24,13.00
2012,07,30,02,25,13.00
2012,07,30,02,26,12.90
2012,07,30,02,27,12.90
2012,07,30,02,28,12.90
2012,07,30,02,29,12.90
2012,07,30,02,30,12.90
2012,07,30,02,31,12.90
2012,07,30,02,32,12.90
2012,07,30,02,33,12.90
2012,07,30,02,34,12.90
2012,07,30,02,35,12.90
2012,07,30,02,36,12.90
2012,07,30,02,37,12.90
2012,07,30,02,38,12.90
2012,07,30,02,39,12.80
2012,07,30,02,40,12.80
2012,07,30,02,41,12.80
2012,07,30,02,42,12.80
2012,07,30,02,43,12.80
2012,07,30,02,44,12.80
2012,07,30,02,45,12.80
2012,07,30,02,46,12.80
2012,07,30,02,47,12.80
2012,07,30,02,48,12.80
2012,07,30,02,49,12.80
2012,07,30,02,50,12.80
2012,07,30,02,51,12.70
2012,07,30,02,52,12.70
2012,07,30,02,53,12.70
2012,07,30,02,54,12.70
2012,07,30,02,55,12.70
2012,07,30,02,56,12.70
2012,07,30,02,57,12.70
2012,07,30,02,58,12.70
2012,07,30,02,59,12.70
2012,07,30,03,00,12.70
2012,07,30,03,01,12.70
2012,07,30,03,02,12.70
2012,07,30,03,03,12.70
2012,07,30,03,04,12.70
2012,07,30,03,05,12.70
2012,07,30,03,06,12.70
2012,07,30,03,07,12.70
2012,07,30,03,08,12.70
2012,07,30,03,09,12.70
2012,07,30,03,10,12.80
2012,07,30,03,11,12.80
2012,07,30,03,12,12.70
2012,07,30,03,13,12.80
2012,07,30,03,14,12.70
2012,07,30,03,15,12.70
2012,07,30,03,16,12.70
2012,07,30,03,17,12.70
2012,07,30,03,18,12.70
2012,07,30,03,19,12.70
2012,07,30,03,20,12.70
2012,07,30,03,21,12.70
2012,07,30,03,22,12.70
2012,07,30,03,23,12.70
2012,07,30,03,24,12.70
2012,07,30,03,25,12.70
2012,07,30,03,26,12.70
2012,07,30,03,27,12.70
2012,07,30,03,28,12.70
2012,07,30,03,29,12.70
2012,07,30,03,30,12.70
2012,07,30,03,31,12.60
2012,07,30,03,32,12.60
2012,07,30,03,33,12.60
2012,07,30,03,34,12.60
2012,07,30,03,35,12.60
2012,07,30,03,36,12.60
2012,07,30,03,37,12.60
2012,07,30,03,38,12.60
2012,07,30,03,39,12.60
2012,07,30,03,40,12.60
2012,07,30,03,41,12.60
2012,07,30,03,42,12.60
2012,07,30,03,43,12.60
2012,07,30,03,44,12.60
2012,07,30,03,45,12.60
2012,07,30,03,46,12.50
2012,07,30,03,47,12.50
2012,07,30,03,48,12.50
2012,07,30,03,49,12.50
2012,07,30,03,50,12.50
2012,07,30,03,51,12.50
2012,07,30,03,52,12.50
2012,07,30,03,53,12.50
2012,07,30,03,54,12.50
2012,07,30,03,55,12.50
2012,07,30,03,56,12.40
2012,07,30,03,57,12.40
2012,07,30,03,58,12.40
2012,07,30,03,59,12.40
2012,07,30,04,00,12.40
2012,07,30,04,01,12.40
2012,07,30,04,02,12.40
2012,07,30,04,03,12.40
2012,07,30,04,04,12.40
2012,07,30,04,05,12.40
2012,07,30,04,06,12.30
2012,07,30,04,07,12.30
2012,07,30,04,08,12.30
2012,07,30,04,09,12.30
2012,07,30,04,10,12.30
2012,07,30,04,11,12.30
2012,07,30,04,12,12.30
2012,07,30,04,13,12.30
2012,07,30,04,14,12.30
2012,07,30,04,15,12.30
2012,07,30,04,16,12.30
2012,07,30,04,17,12.30
2012,07,30,04,18,12.30
2012,07,30,04,19,12.30
2012,07,30,04,20,12.30
2012,07,30,04,21,12.30
2012,07,30,04,22,12.30
2012,07,30,04,23,12.20
2012,07,30,04,24,12.20
2012,07,30,04,25,12.20
2012,07,30,04,26,12.20
2012,07,30,04,27,12.20
2012,07,30,04,28,12.20
2012,07,30,04,29,12.20
2012,07,30,04,30,12.20
2012,07,30,04,31,12.20
2012,07,30,04,32,12.20
2012,07,30,04,33,12.20
2012,07,30,04,34,12.20
2012,07,30,04,35,12.20
2012,07,30,04,36,12.10
2012,07,30,04,37,12.10
2012,07,30,04,38,12.10
2012,07,30,04,39,12.10
2012,07,30,04,40,12.10
2012,07,30,04,41,12.10
2012,07,30,04,42,12.10
2012,07,30,04,43,12.10
2012,07,30,04,44,12.10
2012,07,30,04,45,12.10
2012,07,30,04,46,12.10
2012,07,30,04,47,12.10
2012,07,30,04,48,12.10
2012,07,30,04,49,12.10
2012,07,30,04,50,12.10
2012,07,30,04,51,12.10
2012,07,30,04,52,12.10
2012,07,30,04,53,12.10
2012,07,30,04,54,12.10
2012,07,30,04,55,12.10
2012,07,30,04,56,12.10
2012,07,30,04,57,12.10
2012,07,30,04,58,12.10
2012,07,30,04,59,12.10
2012,07,30,05,00,12.10
2012,07,30,05,01,12.10
2012,07,30,05,02,12.10
2012,07,30,05,03,12.10
2012,07,30,05,04,12.10
2012,07,30,05,05,12.10
2012,07,30,05,06,12.10
2012,07,30,05,07,12.10
2012,07,30,05,08,12.10
2012,07,30,05,09,12.10
2012,07,30,05,10,12.10
2012,07,30,05,11,12.10
2012,07,30,05,12,12.10
2012,07,30,05,13,12.10
2012,07,30,05,14,12.10
2012,07,30,05,15,12.10
2012,07,30,05,16,12.10
2012,07,30,05,17,12.10
2012,07,30,05,18,12.10
2012,07,30,05,19,12.10
2012,07,30,05,20,12.10
2012,07,30,05,21,12.10
2012,07,30,05,22,12.10
2012,07,30,05,23,12.10
2012,07,30,05,24,12.00
2012,07,30,05,25,12.10
2012,07,30,05,26,12.10
2012,07,30,05,27,12.10
2012,07,30,05,28,12.10
2012,07,30,05,29,12.10
2012,07,30,05,30,12.10
2012,07,30,05,31,12.10
2012,07,30,05,32,12.10
2012,07,30,05,33,12.10
2012,07,30,05,34,12.10
2012,07,30,05,35,12.10
2012,07,30,05,36,12.10
2012,07,30,05,37,12.10
2012,07,30,05,38,12.10
2012,07,30,05,39,12.10
2012,07,30,05,40,12.10
2012,07,30,05,41,12.10
2012,07,30,05,42,12.10
2012,07,30,05,43,12.10
2012,07,30,05,44,12.10
2012,07,30,05,45,12.10
2012,07,30,05,46,12.10
2012,07,30,05,47,12.10
2012,07,30,05,48,12.10
2012,07,30,05,49,12.10
2012,07,30,05,50,12.10
2012,07,30,05,51,12.10
2012,07,30,05,52,12.10
2012,07,30,05,53,12.10
2012,07,30,05,54,12.10
2012,07,30,05,55,12.10
2012,07,30,05,56,12.10
2012,07,30,05,57,12.10
2012,07,30,05,58,12.10
2012,07,30,05,59,12.10
2012,07,30,06,00,12.10
2012,07,30,06,01,12.10
2012,07,30,06,02,12.10
2012,07,30,06,03,12.10
2012,07,30,06,04,12.10
2012,07,30,06,05,12.10
2012,07,30,06,06,12.10
2012,07,30,06,07,12.20
2012,07,30,06,08,12.20
2012,07,30,06,09,12.20
2012,07,30,06,10,12.20
2012,07,30,06,11,12.20
2012,07,30,06,12,12.20
2012,07,30,06,13,12.20
2012,07,30,06,14,12.20
2012,07,30,06,15,12.20
2012,07,30,06,16,12.20
2012,07,30,06,17,12.30
2012,07,30,06,18,12.30
2012,07,30,06,19,12.30
2012,07,30,06,20,12.30
2012,07,30,06,21,12.30
2012,07,30,06,22,12.30
2012,07,30,06,23,12.30
2012,07,30,06,24,12.30
2012,07,30,06,25,12.30
2012,07,30,06,26,12.30
2012,07,30,06,27,12.30
2012,07,30,06,28,12.30
2012,07,30,06,29,12.30
2012,07,30,06,30,12.30
2012,07,30,06,31,12.30
2012,07,30,06,32,12.30
2012,07,30,06,33,12.30
2012,07,30,06,34,12.30
2012,07,30,06,35,12.40
2012,07,30,06,36,12.40
2012,07,30,06,37,12.40
2012,07,30,06,38,12.40
2012,07,30,06,39,12.40
2012,07,30,06,40,12.40
2012,07,30,06,41,12.40
2012,07,30,06,42,12.40
2012,07,30,06,43,12.40
2012,07,30,06,44,12.40
2012,07,30,06,45,12.40
2012,07,30,06,46,12.50
2012,07,30,06,47,12.50
2012,07,30,06,48,12.50
2012,07,30,06,49,12.50
2012,07,30,06,50,12.60
2012,07,30,06,51,12.60
2012,07,30,06,52,12.60
2012,07,30,06,53,12.60
2012,07,30,06,54,12.60
2012,07,30,06,55,12.60
2012,07,30,06,56,12.60
2012,07,30,06,57,12.70
2012,07,30,06,58,12.70
2012,07,30,06,59,12.70
2012,07,30,07,00,12.70
2012,07,30,07,01,12.70
2012,07,30,07,02,12.70
2012,07,30,07,03,12.80
2012,07,30,07,04,12.80
2012,07,30,07,05,12.80
2012,07,30,07,06,12.80
2012,07,30,07,07,12.80
2012,07,30,07,08,12.80
2012,07,30,07,09,12.80
2012,07,30,07,10,12.80
2012,07,30,07,11,12.80
2012,07,30,07,12,12.80
2012,07,30,07,13,12.80
2012,07,30,07,14,12.90
2012,07,30,07,15,12.90
2012,07,30,07,16,12.90
2012,07,30,07,17,12.90
2012,07,30,07,18,12.90
2012,07,30,07,19,12.90
2012,07,30,07,20,12.90
2012,07,30,07,21,12.90
2012,07,30,07,22,13.00
2012,07,30,07,23,13.00
2012,07,30,07,24,13.00
2012,07,30,07,25,13.10
2012,07,30,07,26,13.00
2012,07,30,07,27,13.00
2012,07,30,07,28,13.00
2012,07,30,07,29,13.00
2012,07,30,07,30,13.00
2012,07,30,07,31,13.00
2012,07,30,07,32,13.00
2012,07,30,07,33,13.00
2012,07,30,07,34,13.00
2012,07,30,07,35,13.00
2012,07,30,07,36,13.10
2012,07,30,07,37,13.10
2012,07,30,07,38,13.10
2012,07,30,07,39,13.20
2012,07,30,07,40,13.20
2012,07,30,07,41,13.20
2012,07,30,07,42,13.30
2012,07,30,07,43,13.30
2012,07,30,07,44,13.30
2012,07,30,07,45,13.40
2012,07,30,07,46,13.40
2012,07,30,07,47,13.50
2012,07,30,07,48,13.60
2012,07,30,07,49,13.60
2012,07,30,07,50,13.70
2012,07,30,07,51,13.70
2012,07,30,07,52,13.80
2012,07,30,07,53,13.90
2012,07,30,07,54,13.90
2012,07,30,07,55,14.00
2012,07,30,07,56,14.10
2012,07,30,07,57,14.10
2012,07,30,07,58,14.20
2012,07,30,07,59,14.20
2012,07,30,08,00,14.30
2012,07,30,08,01,14.30
2012,07,30,08,02,14.30
2012,07,30,08,03,14.30
2012,07,30,08,04,14.30
2012,07,30,08,05,14.30
2012,07,30,08,06,14.30
2012,07,30,08,07,14.30
2012,07,30,08,08,14.40
2012,07,30,08,09,14.40
2012,07,30,08,10,14.40
2012,07,30,08,11,14.40
2012,07,30,08,12,14.40
2012,07,30,08,13,14.40
2012,07,30,08,14,14.40
2012,07,30,08,15,14.40
2012,07,30,08,16,14.40
2012,07,30,08,17,14.40
2012,07,30,08,18,14.30
2012,07,30,08,19,14.40
2012,07,30,08,20,14.40
2012,07,30,08,21,14.40
2012,07,30,08,22,14.40
2012,07,30,08,23,14.40
2012,07,30,08,24,14.40
2012,07,30,08,25,14.40
2012,07,30,08,26,14.30
2012,07,30,08,27,14.20
2012,07,30,08,28,14.10
2012,07,30,08,29,14.10
2012,07,30,08,30,14.10
2012,07,30,08,31,14.10
2012,07,30,08,32,14.10
2012,07,30,08,33,14.10
2012,07,30,08,34,14.10
2012,07,30,08,35,14.10
2012,07,30,08,36,14.20
2012,07,30,08,37,14.20
2012,07,30,08,38,14.20
2012,07,30,08,39,14.10
2012,07,30,08,40,14.00
2012,07,30,08,41,14.00
2012,07,30,08,42,13.90
2012,07,30,08,43,13.90
2012,07,30,08,44,13.90
2012,07,30,08,45,13.90
2012,07,30,08,46,13.90
2012,07,30,08,47,13.90
2012,07,30,08,48,14.00
2012,07,30,08,49,14.00
2012,07,30,08,50,14.00
2012,07,30,08,51,14.00
2012,07,30,08,52,14.00
2012,07,30,08,53,14.10
2012,07,30,08,54,14.20
2012,07,30,08,55,14.30
2012,07,30,08,56,14.40
2012,07,30,08,57,14.50
2012,07,30,08,58,14.60
2012,07,30,08,59,14.70
2012,07,30,09,00,14.80
2012,07,30,09,01,14.80
2012,07,30,09,02,14.90
2012,07,30,09,03,15.00
2012,07,30,09,04,15.00
2012,07,30,09,05,15.00
2012,07,30,09,06,15.00
2012,07,30,09,07,15.00
2012,07,30,09,08,15.00
2012,07,30,09,09,15.00
2012,07,30,09,10,15.00
2012,07,30,09,11,15.00
2012,07,30,09,12,15.00
2012,07,30,09,13,15.00
2012,07,30,09,14,15.00
2012,07,30,09,15,14.80
2012,07,30,09,16,14.80
2012,07,30,09,17,14.80
2012,07,30,09,18,14.80
2012,07,30,09,19,14.70
2012,07,30,09,20,14.50
2012,07,30,09,21,14.40
2012,07,30,09,22,14.30
2012,07,30,09,23,14.30
2012,07,30,09,24,14.20
2012,07,30,09,25,14.20
2012,07,30,09,26,14.20
2012,07,30,09,27,14.10
2012,07,30,09,28,14.00
2012,07,30,09,29,13.90
2012,07,30,09,30,13.80
2012,07,30,09,31,13.70
2012,07,30,09,32,13.60
2012,07,30,09,33,13.60
2012,07,30,09,34,13.50
2012,07,30,09,35,13.40
2012,07,30,09,36,13.40
2012,07,30,09,37,13.40
2012,07,30,09,38,13.40
2012,07,30,09,39,13.40
2012,07,30,09,40,13.50
2012,07,30,09,41,13.50
2012,07,30,09,42,13.60
2012,07,30,09,43,13.60
2012,07,30,09,44,13.60
2012,07,30,09,45,13.60
2012,07,30,09,46,13.60
2012,07,30,09,47,13.60
2012,07,30,09,48,13.50
2012,07,30,09,49,13.50
2012,07,30,09,50,13.50
2012,07,30,09,51,13.50
2012,07,30,09,52,13.60
2012,07,30,09,53,13.60
2012,07,30,09,54,13.70
2012,07,30,09,55,13.70
2012,07,30,09,56,13.60
2012,07,30,09,57,13.60
2012,07,30,09,58,13.60
2012,07,30,09,59,13.60
2012,07,30,10,00,13.60
2012,07,30,10,01,13.60
2012,07,30,10,02,13.60
2012,07,30,10,03,13.60
2012,07,30,10,04,13.60
2012,07,30,10,05,13.60
2012,07,30,10,06,13.60
2012,07,30,10,07,13.60
2012,07,30,10,08,13.60
2012,07,30,10,09,13.70
2012,07,30,10,10,13.70
2012,07,30,10,11,13.70
2012,07,30,10,12,13.70
2012,07,30,10,13,13.80
2012,07,30,10,14,13.90
2012,07,30,10,15,14.00
2012,07,30,10,16,14.10
2012,07,30,10,17,14.10
2012,07,30,10,18,14.10
2012,07,30,10,19,14.10
2012,07,30,10,20,14.20
2012,07,30,10,21,14.20
2012,07,30,10,22,14.30
2012,07,30,10,23,14.30
2012,07,30,10,24,14.40
2012,07,30,10,25,14.40
2012,07,30,10,26,14.40
2012,07,30,10,27,14.50
2012,07,30,10,28,14.60
2012,07,30,10,29,14.70
2012,07,30,10,30,14.70
2012,07,30,10,31,14.80
2012,07,30,10,32,15.00
2012,07,30,10,33,15.00
2012,07,30,10,34,15.00
2012,07,30,10,35,15.00
2012,07,30,10,36,15.00
2012,07,30,10,37,15.00
2012,07,30,10,38,15.10
2012,07,30,10,39,15.00
2012,07,30,10,40,15.00
2012,07,30,10,41,15.10
2012,07,30,10,42,15.20
2012,07,30,10,43,15.40
2012,07,30,10,44,15.50
2012,07,30,10,45,15.50
2012,07,30,10,46,15.50
2012,07,30,10,47,15.60
2012,07,30,10,48,15.60
2012,07,30,10,49,15.60
2012,07,30,10,50,15.60
2012,07,30,10,51,15.60
2012,07,30,10,52,15.50
2012,07,30,10,53,15.50
2012,07,30,10,54,15.40
2012,07,30,10,55,15.40
2012,07,30,10,56,15.40
2012,07,30,10,57,15.40
2012,07,30,10,58,15.50
2012,07,30,10,59,15.50
2012,07,30,11,00,15.40
2012,07,30,11,01,15.40
2012,07,30,11,02,15.30
2012,07,30,11,03,15.20
2012,07,30,11,04,15.20
2012,07,30,11,05,15.30
2012,07,30,11,06,15.30
2012,07,30,11,07,15.30
2012,07,30,11,08,15.40
2012,07,30,11,09,15.50
2012,07,30,11,10,15.70
2012,07,30,11,11,15.80
2012,07,30,11,12,15.80
2012,07,30,11,13,15.90
2012,07,30,11,14,16.00
2012,07,30,11,15,16.00
2012,07,30,11,16,16.10
2012,07,30,11,17,16.10
2012,07,30,11,18,16.10
2012,07,30,11,19,16.20
2012,07,30,11,20,16.30
2012,07,30,11,21,16.30
2012,07,30,11,22,16.50
2012,07,30,11,23,16.50
2012,07,30,11,24,16.40
2012,07,30,11,25,16.30
2012,07,30,11,26,16.10
2012,07,30,11,27,15.80
2012,07,30,11,28,15.60
2012,07,30,11,29,15.40
2012,07,30,11,30,15.40
2012,07,30,11,31,15.30
2012,07,30,11,32,15.30
2012,07,30,11,33,15.30
2012,07,30,11,34,15.20
2012,07,30,11,35,15.20
2012,07,30,11,36,15.30
2012,07,30,11,37,15.30
2012,07,30,11,38,15.40
2012,07,30,11,39,15.40
2012,07,30,11,40,15.40
2012,07,30,11,41,15.50
2012,07,30,11,42,15.50
2012,07,30,11,43,15.40
2012,07,30,11,44,15.40
2012,07,30,11,45,15.40
2012,07,30,11,46,15.30
2012,07,30,11,47,15.20
2012,07,30,11,48,15.10
2012,07,30,11,49,15.00
2012,07,30,11,50,15.00
2012,07,30,11,51,15.00
2012,07,30,11,52,15.00
2012,07,30,11,53,15.00
2012,07,30,11,54,15.00
2012,07,30,11,55,14.80
2012,07,30,11,56,14.70
2012,07,30,11,57,14.60
2012,07,30,11,58,14.60
2012,07,30,11,59,14.50
2012,07,30,12,00,14.50
2012,07,30,12,01,14.50
2012,07,30,12,02,14.60
2012,07,30,12,03,14.70
2012,07,30,12,04,14.80
2012,07,30,12,05,14.80
2012,07,30,12,06,14.70
2012,07,30,12,07,14.60
2012,07,30,12,08,14.50
2012,07,30,12,09,14.50
2012,07,30,12,10,14.40
2012,07,30,12,11,14.30
2012,07,30,12,12,14.30
2012,07,30,12,13,14.30
2012,07,30,12,14,14.30
2012,07,30,12,15,14.30
2012,07,30,12,16,14.30
2012,07,30,12,17,14.30
2012,07,30,12,18,14.30
2012,07,30,12,19,14.30
2012,07,30,12,20,14.30
2012,07,30,12,21,14.30
2012,07,30,12,22,14.30
2012,07,30,12,23,14.40
2012,07,30,12,24,14.50
2012,07,30,12,25,14.50
2012,07,30,12,26,14.60
2012,07,30,12,27,14.60
2012,07,30,12,28,14.70
2012,07,30,12,29,14.70
2012,07,30,12,30,14.80
2012,07,30,12,31,15.00
2012,07,30,12,32,15.00
2012,07,30,12,33,15.00
2012,07,30,12,34,15.00
2012,07,30,12,35,15.00
2012,07,30,12,36,15.00
2012,07,30,12,37,15.00
2012,07,30,12,38,15.00
2012,07,30,12,39,15.10
2012,07,30,12,40,15.20
2012,07,30,12,41,15.20
2012,07,30,12,42,15.20
2012,07,30,12,43,15.00
2012,07,30,12,44,15.00
2012,07,30,12,45,15.00
2012,07,30,12,46,15.00
2012,07,30,12,47,15.00
2012,07,30,12,48,15.00
2012,07,30,12,49,15.00
2012,07,30,12,50,15.00
2012,07,30,12,51,15.00
2012,07,30,12,52,15.00
2012,07,30,12,53,15.10
2012,07,30,12,54,15.30
2012,07,30,12,55,15.40
2012,07,30,12,56,15.60
2012,07,30,12,57,15.80
2012,07,30,12,58,16.10
2012,07,30,12,59,16.20
2012,07,30,13,00,16.30
2012,07,30,13,01,16.40
2012,07,30,13,02,16.60
2012,07,30,13,03,16.70
2012,07,30,13,04,16.80
2012,07,30,13,05,16.80
2012,07,30,13,06,16.80
2012,07,30,13,07,16.90
2012,07,30,13,08,16.90
2012,07,30,13,09,16.90
2012,07,30,13,10,17.00
2012,07,30,13,11,17.10
2012,07,30,13,12,17.10
2012,07,30,13,13,17.20
2012,07,30,13,14,17.20
2012,07,30,13,15,17.40
2012,07,30,13,16,17.60
2012,07,30,13,17,17.80
2012,07,30,13,18,18.00
2012,07,30,13,19,18.10
2012,07,30,13,20,18.30
2012,07,30,13,21,18.40
2012,07,30,13,22,18.40
2012,07,30,13,23,18.50
2012,07,30,13,24,18.60
2012,07,30,13,25,18.60
2012,07,30,13,26,18.60
2012,07,30,13,27,18.60
2012,07,30,13,28,18.70
2012,07,30,13,29,18.70
2012,07,30,13,30,18.70
2012,07,30,13,31,18.90
2012,07,30,13,32,18.80
2012,07,30,13,33,18.80
2012,07,30,13,34,18.80
2012,07,30,13,35,18.90
2012,07,30,13,36,18.80
2012,07,30,13,37,18.70
2012,07,30,13,38,18.60
2012,07,30,13,39,18.40
2012,07,30,13,40,18.20
2012,07,30,13,41,18.20
2012,07,30,13,42,18.00
2012,07,30,13,43,17.80
2012,07,30,13,44,17.70
2012,07,30,13,45,17.60
2012,07,30,13,46,17.50
2012,07,30,13,47,17.50
2012,07,30,13,48,17.60
2012,07,30,13,49,17.60
2012,07,30,13,50,17.40
2012,07,30,13,51,17.40
2012,07,30,13,52,17.40
2012,07,30,13,53,17.30
2012,07,30,13,54,17.20
2012,07,30,13,55,17.10
2012,07,30,13,56,17.10
2012,07,30,13,57,17.10
2012,07,30,13,58,17.00
2012,07,30,13,59,17.00
2012,07,30,14,00,16.90
2012,07,30,14,01,17.00
2012,07,30,14,02,17.00
2012,07,30,14,03,17.10
2012,07,30,14,04,17.20
2012,07,30,14,05,17.30
2012,07,30,14,06,17.40
2012,07,30,14,07,17.50
2012,07,30,14,08,17.60
2012,07,30,14,09,17.70
2012,07,30,14,10,17.70
2012,07,30,14,11,17.80
2012,07,30,14,12,17.80
2012,07,30,14,13,17.80
2012,07,30,14,14,17.80
2012,07,30,14,15,17.80
2012,07,30,14,16,17.90
2012,07,30,14,17,18.00
2012,07,30,14,18,18.00
2012,07,30,14,19,18.00
2012,07,30,14,20,18.10
2012,07,30,14,21,18.10
2012,07,30,14,22,18.20
2012,07,30,14,23,18.20
2012,07,30,14,24,18.20
2012,07,30,14,25,18.20
2012,07,30,14,26,18.30
2012,07,30,14,27,18.40
2012,07,30,14,28,18.50
2012,07,30,14,29,18.60
2012,07,30,14,30,18.70
2012,07,30,14,31,18.80
2012,07,30,14,32,18.90
2012,07,30,14,33,19.00
2012,07,30,14,34,19.00
2012,07,30,14,35,19.10
2012,07,30,14,36,19.00
2012,07,30,14,37,19.10
2012,07,30,14,38,19.10
2012,07,30,14,39,19.10
2012,07,30,14,40,19.20
2012,07,30,14,41,19.30
2012,07,30,14,42,19.30
2012,07,30,14,43,19.30
2012,07,30,14,44,19.40
2012,07,30,14,45,19.50
2012,07,30,14,46,19.40
2012,07,30,14,47,19.40
2012,07,30,14,48,19.40
2012,07,30,14,49,19.50
2012,07,30,14,50,19.50
2012,07,30,14,51,19.60
2012,07,30,14,52,19.60
2012,07,30,14,53,19.60
2012,07,30,14,54,19.60
2012,07,30,14,55,19.60
2012,07,30,14,56,19.50
2012,07,30,14,57,19.40
2012,07,30,14,58,19.40
2012,07,30,14,59,19.50
2012,07,30,15,00,19.60
2012,07,30,15,01,19.60
2012,07,30,15,02,19.70
2012,07,30,15,03,19.80
2012,07,30,15,04,19.80
2012,07,30,15,05,19.80
2012,07,30,15,06,19.90
2012,07,30,15,07,20.00
2012,07,30,15,08,20.10
2012,07,30,15,09,20.20
2012,07,30,15,10,20.30
2012,07,30,15,11,20.40
2012,07,30,15,12,20.20
2012,07,30,15,13,20.20
2012,07,30,15,14,20.20
2012,07,30,15,15,20.20
2012,07,30,15,16,20.20
2012,07,30,15,17,20.30
2012,07,30,15,18,20.30
2012,07,30,15,19,20.40
2012,07,30,15,20,20.40
2012,07,30,15,21,20.40
2012,07,30,15,22,20.40
2012,07,30,15,23,20.30
2012,07,30,15,24,20.30
2012,07,30,15,25,20.20
2012,07,30,15,26,20.10
2012,07,30,15,27,20.10
2012,07,30,15,28,20.10
2012,07,30,15,29,20.10
2012,07,30,15,30,20.10
2012,07,30,15,31,20.00
2012,07,30,15,32,19.90
2012,07,30,15,33,19.70
2012,07,30,15,34,19.60
2012,07,30,15,35,19.60
2012,07,30,15,36,19.60
2012,07,30,15,37,19.60
2012,07,30,15,38,19.60
2012,07,30,15,39,19.60
2012,07,30,15,40,19.50
2012,07,30,15,41,19.60
2012,07,30,15,42,19.60
2012,07,30,15,43,19.60
2012,07,30,15,44,19.60
2012,07,30,15,45,19.50
2012,07,30,15,46,19.50
2012,07,30,15,47,19.30
2012,07,30,15,48,19.20
2012,07,30,15,49,19.10
2012,07,30,15,50,19.10
2012,07,30,15,51,19.10
2012,07,30,15,52,19.10
2012,07,30,15,53,19.10
2012,07,30,15,54,19.10
2012,07,30,15,55,19.10
2012,07,30,15,56,19.10
2012,07,30,15,57,19.10
2012,07,30,15,58,19.20
2012,07,30,15,59,19.20
2012,07,30,16,00,19.30
2012,07,30,16,01,19.30
2012,07,30,16,02,19.30
2012,07,30,16,03,19.30
2012,07,30,16,04,19.30
2012,07,30,16,05,19.30
2012,07,30,16,06,19.30
2012,07,30,16,07,19.30
2012,07,30,16,08,19.30
2012,07,30,16,09,19.30
2012,07,30,16,10,19.20
2012,07,30,16,11,19.20
2012,07,30,16,12,19.20
2012,07,30,16,13,19.20
2012,07,30,16,14,19.20
2012,07,30,16,15,19.30
2012,07,30,16,16,19.30
2012,07,30,16,17,19.30
2012,07,30,16,18,19.40
2012,07,30,16,19,19.40
2012,07,30,16,20,19.40
2012,07,30,16,21,19.40
2012,07,30,16,22,19.40
2012,07,30,16,23,19.30
2012,07,30,16,24,19.30
2012,07,30,16,25,19.30
2012,07,30,16,26,19.40
2012,07,30,16,27,19.40
2012,07,30,16,28,19.40
2012,07,30,16,29,19.30
2012,07,30,16,30,19.30
2012,07,30,16,31,19.30
2012,07,30,16,32,19.30
2012,07,30,16,33,19.20
2012,07,30,16,34,19.20
2012,07,30,16,35,19.10
2012,07,30,16,36,19.20
2012,07,30,16,37,19.20
2012,07,30,16,38,19.30
2012,07,30,16,39,19.30
2012,07,30,16,40,19.40
2012,07,30,16,41,19.40
2012,07,30,16,42,19.40
2012,07,30,16,43,19.40
2012,07,30,16,44,19.50
2012,07,30,16,45,19.50
2012,07,30,16,46,19.50
2012,07,30,16,47,19.40
2012,07,30,16,48,19.40
2012,07,30,16,49,19.40
2012,07,30,16,50,19.40
2012,07,30,16,51,19.40
2012,07,30,16,52,19.50
2012,07,30,16,53,19.40
2012,07,30,16,54,19.40
2012,07,30,16,55,19.40
2012,07,30,16,56,19.30
2012,07,30,16,57,19.20
2012,07,30,16,58,19.20
2012,07,30,16,59,19.20
2012,07,30,17,00,19.30
2012,07,30,17,01,19.40
2012,07,30,17,02,19.50
2012,07,30,17,03,19.60
2012,07,30,17,04,19.60
2012,07,30,17,05,19.60
2012,07,30,17,06,19.60
2012,07,30,17,07,19.60
2012,07,30,17,08,19.60
2012,07,30,17,09,19.60
2012,07,30,17,10,19.70
2012,07,30,17,11,19.70
2012,07,30,17,12,19.70
2012,07,30,17,13,19.70
2012,07,30,17,14,19.60
2012,07,30,17,15,19.50
2012,07,30,17,16,19.40
2012,07,30,17,17,19.50
2012,07,30,17,18,19.50
2012,07,30,17,19,19.60